Time,TemperatureF,DewpointF,PressureIn,WindDirection,WindDirectionDegrees,WindSpeedMPH,WindSpeedGustMPH,Humidity,HourlyPrecipIn,Conditions,Clouds,dailyrainin,SoftwareType,DateUTC
2013-08-10 00:02:00,70.3,53.9,29.85,NNW,345,0.0,0.0,56,0.00,CLR,,0.00,WeatherDisplay:10.37,2013-08-10 07:02:00,
2013-08-10 00:07:00,70.8,53.8,29.85,NNW,345,0.0,0.0,55,0.00,CLR,,0.00,WeatherDisplay:10.37,2013-08-10 07:07:00,
2013-08-10 00:12:00,71.3,54.8,29.85,NNW,346,0.0,0.0,56,0.00,CLR,,0.00,WeatherDisplay:10.37,2013-08-10 07:12:00,
2013-08-10 00:17:00,71.5,54.5,29.85,NNW,345,0.0,0.0,55,0.00,CLR,,0.00,WeatherDisplay:10.37,2013-08-10 07:17:00,
2013-08-10 00:22:00,71.6,54.1,29.85,NNW,345,0.0,0.0,54,0.00,CLR,,0.00,WeatherDisplay:10.37,2013-08-10 07:22:00,
2013-08-10 00:27:00,71.7,54.2,29.85,NNW,345,0.0,0.0,54,0.00,CLR,,0.00,WeatherDisplay:10.37,2013-08-10 07:27:00,
2013-08-10 00:32:00,71.6,54.1,29.85,NNW,345,0.0,0.0,54,0.00,CLR,,0.00,WeatherDisplay:10.37,2013-08-10 07:32:00,
2013-08-10 00:37:00,71.4,54.9,29.85,NNW,346,0.0,0.0,56,0.00,CLR,,0.00,WeatherDisplay:10.37,2013-08-10 07:37:00,
2013-08-10 00:42:00,71.1,55.1,29.85,NNW,346,0.0,0.0,57,0.00,CLR,,0.00,WeatherDisplay:10.37,2013-08-10 07:42:00,
2013-08-10 00:47:00,70.7,55.2,29.85,NNW,345,0.0,0.0,58,0.00,CLR,,0.00,WeatherDisplay:10.37,2013-08-10 07:47:00,
2013-08-10 00:52:00,70.3,55.3,29.85,NNW,346,0.0,0.0,59,0.00,CLR,,0.00,WeatherDisplay:10.37,2013-08-10 07:52:00,
2013-08-10 00:57:00,69.9,55.8,29.85,NNW,345,0.0,0.0,61,0.00,CLR,,0.00,WeatherDisplay:10.37,2013-08-10 07:57:00,
2013-08-10 01:02:00,69.4,54.4,29.85,NNW,345,1.2,1.2,59,0.00,CLR,,0.00,WeatherDisplay:10.37,2013-08-10 08:02:00,
2013-08-10 01:07:00,69.2,54.7,29.85,NNW,345,0.0,0.0,60,0.00,CLR,,0.00,WeatherDisplay:10.37,2013-08-10 08:07:00,
2013-08-10 01:12:00,69.1,55.5,29.86,NNW,346,0.0,0.0,62,0.00,CLR,,0.00,WeatherDisplay:10.37,2013-08-10 08:12:00,
2013-08-10 01:17:00,69.0,55.0,29.86,NNW,345,0.0,0.0,61,0.00,CLR,,0.00,WeatherDisplay:10.37,2013-08-10 08:17:00,
2013-08-10 01:22:00,68.7,54.3,29.86,NNW,345,0.0,0.0,60,0.00,CLR,,0.00,WeatherDisplay:10.37,2013-08-10 08:22:00,
2013-08-10 01:27:00,68.5,54.1,29.86,NNW,345,0.0,0.0,60,0.00,CLR,,0.00,WeatherDisplay:10.37,2013-08-10 08:27:00,
2013-08-10 01:32:00,68.6,54.2,29.85,NNW,345,0.0,0.0,60,0.00,CLR,,0.00,WeatherDisplay:10.37,2013-08-10 08:32:00,
2013-08-10 01:37:00,68.7,54.3,29.85,NNW,345,0.0,0.0,60,0.00,CLR,,0.00,WeatherDisplay:10.37,2013-08-10 08:37:00,
2013-08-10 01:42:00,68.8,54.8,29.85,NNW,345,0.0,0.0,61,0.00,CLR,,0.00,WeatherDisplay:10.37,2013-08-10 08:42:00,
2013-08-10 01:47:00,68.6,55.1,29.85,NNW,345,0.0,0.0,62,0.00,CLR,,0.00,WeatherDisplay:10.37,2013-08-10 08:47:00,
2013-08-10 01:52:00,68.3,54.8,29.85,NNW,345,0.0,0.0,62,0.00,CLR,,0.00,WeatherDisplay:10.37,2013-08-10 08:52:00,
2013-08-10 01:57:00,68.0,55.4,29.86,NNW,345,0.0,0.0,64,0.00,CLR,,0.00,WeatherDisplay:10.37,2013-08-10 08:57:00,
2013-08-10 02:02:00,67.7,55.5,29.86,NNW,346,0.0,0.0,65,0.00,CLR,,0.00,WeatherDisplay:10.37,2013-08-10 09:02:00,
2013-08-10 02:07:00,67.5,55.3,29.86,NNW,345,0.0,0.0,65,0.00,CLR,,0.00,WeatherDisplay:10.37,2013-08-10 09:07:00,
2013-08-10 02:12:00,67.4,55.6,29.86,NNW,345,0.0,0.0,66,0.00,CLR,,0.00,WeatherDisplay:10.37,2013-08-10 09:12:00,
2013-08-10 02:17:00,67.3,56.0,29.86,NNW,346,0.0,0.0,67,0.00,CLR,,0.00,WeatherDisplay:10.37,2013-08-10 09:17:00,
2013-08-10 02:22:00,67.0,55.7,29.86,NNW,345,0.0,0.0,67,0.00,CLR,,0.00,WeatherDisplay:10.37,2013-08-10 09:22:00,
2013-08-10 02:27:00,66.7,55.8,29.86,NNW,345,0.0,0.0,68,0.00,CLR,,0.00,WeatherDisplay:10.37,2013-08-10 09:27:00,
2013-08-10 02:32:00,66.4,55.5,29.86,NNW,346,0.0,0.0,68,0.00,CLR,,0.00,WeatherDisplay:10.37,2013-08-10 09:32:00,
2013-08-10 02:37:00,66.2,55.7,29.86,NNW,345,0.0,0.0,69,0.00,CLR,,0.00,WeatherDisplay:10.37,2013-08-10 09:37:00,
2013-08-10 02:42:00,65.9,55.8,29.86,NNW,346,0.0,0.0,70,0.00,CLR,,0.00,WeatherDisplay:10.37,2013-08-10 09:42:00,
2013-08-10 02:47:00,65.9,56.6,29.86,NNW,345,0.0,0.0,72,0.00,CLR,,0.00,WeatherDisplay:10.37,2013-08-10 09:47:00,
2013-08-10 02:52:00,65.7,56.8,29.86,NNW,345,0.0,0.0,73,0.00,CLR,,0.00,WeatherDisplay:10.37,2013-08-10 09:52:00,
2013-08-10 02:57:00,65.4,56.1,29.86,NNW,345,0.0,0.0,72,0.00,CLR,,0.00,WeatherDisplay:10.37,2013-08-10 09:57:00,
2013-08-10 03:02:00,65.1,56.2,29.86,NNW,346,0.0,0.0,73,0.00,CLR,,0.00,WeatherDisplay:10.37,2013-08-10 10:02:00,
2013-08-10 03:07:00,64.8,56.3,29.86,NNW,345,0.0,0.0,74,0.00,CLR,,0.00,WeatherDisplay:10.37,2013-08-10 10:07:00,
2013-08-10 03:12:00,64.6,56.1,29.86,NNW,345,0.0,0.0,74,0.00,CLR,,0.00,WeatherDisplay:10.37,2013-08-10 10:12:00,
2013-08-10 03:17:00,64.3,56.2,29.87,NNW,345,0.0,0.0,75,0.00,CLR,,0.00,WeatherDisplay:10.37,2013-08-10 10:17:00,
2013-08-10 03:22:00,64.2,56.5,29.87,NNW,346,0.0,0.0,76,0.00,CLR,,0.00,WeatherDisplay:10.37,2013-08-10 10:22:00,
2013-08-10 03:27:00,64.0,56.6,29.87,NNW,346,0.0,0.0,77,0.00,CLR,,0.00,WeatherDisplay:10.37,2013-08-10 10:27:00,
2013-08-10 03:32:00,64.0,56.6,29.87,NNW,345,0.0,0.0,77,0.00,CLR,,0.00,WeatherDisplay:10.37,2013-08-10 10:32:00,
2013-08-10 03:37:00,63.9,56.2,29.87,NNW,346,0.0,0.0,76,0.00,CLR,,0.00,WeatherDisplay:10.37,2013-08-10 10:37:00,
2013-08-10 03:42:00,63.8,56.4,29.88,NNW,345,0.0,0.0,77,0.00,CLR,,0.00,WeatherDisplay:10.37,2013-08-10 10:42:00,
2013-08-10 03:47:00,63.6,56.3,29.88,NNW,345,0.0,0.0,77,0.00,CLR,,0.00,WeatherDisplay:10.37,2013-08-10 10:47:00,
2013-08-10 03:52:00,63.5,56.2,29.88,NNW,345,0.0,0.0,77,0.00,CLR,,0.00,WeatherDisplay:10.37,2013-08-10 10:52:00,
2013-08-10 03:57:00,63.2,56.2,29.88,NNW,345,0.0,0.0,78,0.00,CLR,,0.00,WeatherDisplay:10.37,2013-08-10 10:57:00,
2013-08-10 04:02:00,63.0,56.0,29.88,NNW,345,0.0,0.0,78,0.00,CLR,,0.00,WeatherDisplay:10.37,2013-08-10 11:02:00,
2013-08-10 04:07:00,62.8,56.2,29.88,NNW,345,0.0,0.0,79,0.00,CLR,,0.00,WeatherDisplay:10.37,2013-08-10 11:07:00,
2013-08-10 04:12:00,62.7,56.4,29.88,NNW,345,0.0,0.0,80,0.00,CLR,,0.00,WeatherDisplay:10.37,2013-08-10 11:12:00,
2013-08-10 04:17:00,62.5,56.2,29.88,NNW,346,0.0,0.0,80,0.00,CLR,,0.00,WeatherDisplay:10.37,2013-08-10 11:17:00,
2013-08-10 04:22:00,62.4,56.1,29.88,NNW,345,0.0,0.0,80,0.00,CLR,,0.00,WeatherDisplay:10.37,2013-08-10 11:22:00,
2013-08-10 04:27:00,62.2,56.0,29.88,NNW,345,0.0,0.0,80,0.00,CLR,,0.00,WeatherDisplay:10.37,2013-08-10 11:27:00,
2013-08-10 04:32:00,62.0,56.1,29.88,NNW,346,0.0,0.0,81,0.00,CLR,,0.00,WeatherDisplay:10.37,2013-08-10 11:32:00,
2013-08-10 04:37:00,61.8,56.2,29.89,NNW,346,0.0,0.0,82,0.00,CLR,,0.00,WeatherDisplay:10.37,2013-08-10 11:37:00,
2013-08-10 04:42:00,61.8,56.6,29.89,NNW,345,0.0,0.0,83,0.00,CLR,,0.00,WeatherDisplay:10.37,2013-08-10 11:42:00,
2013-08-10 04:47:00,61.8,56.6,29.89,NNW,345,0.0,0.0,83,0.00,CLR,,0.00,WeatherDisplay:10.37,2013-08-10 11:47:00,
2013-08-10 04:52:00,61.9,56.3,29.89,NNW,345,0.0,0.0,82,0.00,CLR,,0.00,WeatherDisplay:10.37,2013-08-10 11:52:00,
2013-08-10 04:57:00,62.0,56.1,29.89,NNW,345,0.0,0.0,81,0.00,CLR,,0.00,WeatherDisplay:10.37,2013-08-10 11:57:00,
2013-08-10 05:02:00,61.9,56.0,29.89,NNW,345,0.0,0.0,81,0.00,CLR,,0.00,WeatherDisplay:10.37,2013-08-10 12:02:00,
2013-08-10 05:07:00,61.8,55.9,29.89,NNW,345,0.0,0.0,81,0.00,CLR,,0.00,WeatherDisplay:10.37,2013-08-10 12:07:00,
2013-08-10 05:12:00,61.8,56.2,29.89,NNW,345,0.0,0.0,82,0.00,CLR,,0.00,WeatherDisplay:10.37,2013-08-10 12:12:00,
2013-08-10 05:17:00,61.7,56.1,29.90,NNW,346,0.0,0.0,82,0.00,CLR,,0.00,WeatherDisplay:10.37,2013-08-10 12:17:00,
2013-08-10 05:22:00,61.6,56.0,29.90,NNW,345,0.0,0.0,82,0.00,CLR,,0.00,WeatherDisplay:10.37,2013-08-10 12:22:00,
2013-08-10 05:27:00,61.5,56.0,29.90,NNW,346,0.0,0.0,82,0.00,CLR,,0.00,WeatherDisplay:10.37,2013-08-10 12:27:00,
2013-08-10 05:32:00,61.4,55.9,29.90,NNW,345,0.0,0.0,82,0.00,CLR,,0.00,WeatherDisplay:10.37,2013-08-10 12:32:00,
2013-08-10 05:37:00,61.3,55.8,29.90,NNW,345,0.0,0.0,82,0.00,CLR,,0.00,WeatherDisplay:10.37,2013-08-10 12:37:00,
2013-08-10 05:42:00,61.3,56.1,29.90,NNW,345,0.0,0.0,83,0.00,CLR,,0.00,WeatherDisplay:10.37,2013-08-10 12:42:00,
2013-08-10 05:47:00,61.3,55.8,29.91,NNW,345,0.0,0.0,82,0.00,CLR,,0.00,WeatherDisplay:10.37,2013-08-10 12:47:00,
2013-08-10 05:52:00,61.4,55.9,29.91,NNW,345,0.0,0.0,82,0.00,CLR,,0.00,WeatherDisplay:10.37,2013-08-10 12:52:00,
2013-08-10 05:57:00,61.6,55.7,29.91,NNW,345,0.0,0.0,81,0.00,CLR,,0.00,WeatherDisplay:10.37,2013-08-10 12:57:00,
2013-08-10 06:02:00,61.7,55.8,29.91,NNW,345,0.0,0.0,81,0.00,CLR,,0.00,WeatherDisplay:10.37,2013-08-10 13:02:00,
2013-08-10 06:07:00,61.7,55.5,29.91,NNW,345,0.0,0.0,80,0.00,CLR,,0.00,WeatherDisplay:10.37,2013-08-10 13:07:00,
2013-08-10 06:12:00,61.6,55.7,29.91,NNW,345,0.0,0.0,81,0.00,CLR,,0.00,WeatherDisplay:10.37,2013-08-10 13:12:00,
2013-08-10 06:17:00,61.5,55.6,29.91,NNW,346,0.0,0.0,81,0.00,CLR,,0.00,WeatherDisplay:10.37,2013-08-10 13:17:00,
2013-08-10 06:22:00,61.5,55.6,29.91,NNW,346,0.0,0.0,81,0.00,CLR,,0.00,WeatherDisplay:10.37,2013-08-10 13:22:00,
2013-08-10 06:27:00,61.5,55.6,29.92,NNW,345,0.0,0.0,81,0.00,CLR,,0.00,WeatherDisplay:10.37,2013-08-10 13:27:00,
2013-08-10 06:32:00,61.5,55.6,29.92,NNW,345,0.0,0.0,81,0.00,CLR,,0.00,WeatherDisplay:10.37,2013-08-10 13:32:00,
2013-08-10 06:37:00,61.4,55.5,29.92,NNW,345,0.0,0.0,81,0.00,CLR,,0.00,WeatherDisplay:10.37,2013-08-10 13:37:00,
2013-08-10 06:42:00,61.5,56.0,29.92,NNW,345,0.0,0.0,82,0.00,CLR,,0.00,WeatherDisplay:10.37,2013-08-10 13:42:00,
2013-08-10 06:47:00,61.5,56.0,29.92,NNW,345,0.0,0.0,82,0.00,CLR,,0.00,WeatherDisplay:10.37,2013-08-10 13:47:00,
2013-08-10 06:52:00,61.6,56.0,29.92,NNW,345,0.0,0.0,82,0.00,CLR,,0.00,WeatherDisplay:10.37,2013-08-10 13:52:00,
2013-08-10 06:57:00,61.8,55.9,29.92,NNW,346,0.0,0.0,81,0.00,CLR,,0.00,WeatherDisplay:10.37,2013-08-10 13:57:00,
2013-08-10 07:02:00,62.0,55.8,29.92,NNW,345,0.0,0.0,80,0.00,CLR,,0.00,WeatherDisplay:10.37,2013-08-10 14:02:00,
2013-08-10 07:07:00,62.3,55.7,29.92,NNW,345,0.0,0.0,79,0.00,CLR,,0.00,WeatherDisplay:10.37,2013-08-10 14:07:00,
2013-08-10 07:12:00,62.6,56.0,29.93,NNW,345,0.0,0.0,79,0.00,CLR,,0.00,WeatherDisplay:10.37,2013-08-10 14:12:00,
2013-08-10 07:17:00,62.9,55.9,29.93,NNW,345,0.0,0.0,78,0.00,CLR,,0.00,WeatherDisplay:10.37,2013-08-10 14:17:00,
2013-08-10 07:22:00,63.2,56.2,29.93,NNW,345,0.0,0.0,78,0.00,CLR,,0.00,WeatherDisplay:10.37,2013-08-10 14:22:00,
2013-08-10 07:27:00,63.5,56.2,29.93,NW,319,0.0,0.0,77,0.00,CLR,,0.00,WeatherDisplay:10.37,2013-08-10 14:27:00,
2013-08-10 07:32:00,63.8,56.4,29.93,NW,319,0.0,0.0,77,0.00,CLR,,0.00,WeatherDisplay:10.37,2013-08-10 14:32:00,
2013-08-10 07:37:00,64.1,56.4,29.94,NW,322,0.0,0.0,76,0.00,CLR,,0.00,WeatherDisplay:10.37,2013-08-10 14:37:00,
2013-08-10 07:42:00,64.4,56.7,29.94,NW,322,0.0,0.0,76,0.00,CLR,,0.00,WeatherDisplay:10.37,2013-08-10 14:42:00,
2013-08-10 07:47:00,64.7,56.6,29.94,NW,322,0.0,0.0,75,0.00,CLR,,0.00,WeatherDisplay:10.37,2013-08-10 14:47:00,
2013-08-10 07:52:00,65.1,57.0,29.94,SE,132,0.0,0.0,75,0.00,CLR,,0.00,WeatherDisplay:10.37,2013-08-10 14:52:00,
2013-08-10 07:57:00,65.4,56.9,29.94,SE,134,0.0,0.0,74,0.00,CLR,,0.00,WeatherDisplay:10.37,2013-08-10 14:57:00,
2013-08-10 08:02:00,65.7,57.2,29.94,SSW,205,1.2,0.0,74,0.00,CLR,,0.00,WeatherDisplay:10.37,2013-08-10 15:02:00,
2013-08-10 08:07:00,66.0,57.1,29.94,SSW,204,0.0,0.0,73,0.00,CLR,,0.00,WeatherDisplay:10.37,2013-08-10 15:07:00,
2013-08-10 08:12:00,66.3,57.4,29.94,SW,222,1.2,0.0,73,0.00,CLR,,0.00,WeatherDisplay:10.37,2013-08-10 15:12:00,
2013-08-10 08:17:00,66.7,57.8,29.94,South,181,0.0,0.0,73,0.00,CLR,,0.00,WeatherDisplay:10.37,2013-08-10 15:17:00,
2013-08-10 08:22:00,66.9,57.6,29.94,South,182,0.0,0.0,72,0.00,CLR,,0.00,WeatherDisplay:10.37,2013-08-10 15:22:00,
2013-08-10 08:27:00,67.2,57.9,29.94,SSW,193,1.2,0.0,72,0.00,CLR,,0.00,WeatherDisplay:10.37,2013-08-10 15:27:00,
2013-08-10 08:32:00,67.4,57.7,29.94,WSW,256,0.0,0.0,71,0.00,CLR,,0.00,WeatherDisplay:10.37,2013-08-10 15:32:00,
2013-08-10 08:37:00,67.6,57.9,29.95,West,273,1.2,0.0,71,0.00,CLR,,0.00,WeatherDisplay:10.37,2013-08-10 15:37:00,
2013-08-10 08:42:00,67.9,57.8,29.95,SW,215,0.0,0.0,70,0.00,CLR,,0.00,WeatherDisplay:10.37,2013-08-10 15:42:00,
2013-08-10 08:47:00,68.2,58.4,29.94,SW,215,0.0,0.0,71,0.00,CLR,,0.00,WeatherDisplay:10.37,2013-08-10 15:47:00,
2013-08-10 08:52:00,68.7,58.9,29.95,SSW,201,0.0,0.0,71,0.00,CLR,,0.00,WeatherDisplay:10.37,2013-08-10 15:52:00,
2013-08-10 08:57:00,69.1,58.9,29.95,SE,145,0.0,0.0,70,0.00,CLR,,0.00,WeatherDisplay:10.37,2013-08-10 15:57:00,
2013-08-10 09:02:00,69.4,58.8,29.95,SE,143,0.0,0.0,69,0.00,CLR,,0.00,WeatherDisplay:10.37,2013-08-10 16:02:00,
2013-08-10 09:07:00,69.8,59.2,29.95,SE,136,0.0,0.0,69,0.00,CLR,,0.00,WeatherDisplay:10.37,2013-08-10 16:07:00,
2013-08-10 09:12:00,70.2,58.3,29.95,SE,145,0.0,0.0,66,0.00,CLR,,0.00,WeatherDisplay:10.37,2013-08-10 16:12:00,
2013-08-10 09:17:00,70.5,59.0,29.95,SE,132,1.2,1.2,67,0.00,CLR,,0.00,WeatherDisplay:10.37,2013-08-10 16:17:00,
2013-08-10 09:22:00,70.8,58.9,29.95,WSW,238,1.2,0.0,66,0.00,CLR,,0.00,WeatherDisplay:10.37,2013-08-10 16:22:00,
2013-08-10 09:27:00,70.8,58.4,29.95,WSW,246,1.2,1.2,65,0.00,CLR,,0.00,WeatherDisplay:10.37,2013-08-10 16:27:00,
2013-08-10 09:32:00,70.9,58.5,29.95,WSW,243,1.2,0.0,65,0.00,CLR,,0.00,WeatherDisplay:10.37,2013-08-10 16:32:00,
2013-08-10 09:37:00,71.1,58.7,29.95,SSW,198,3.5,3.5,65,0.00,CLR,,0.00,WeatherDisplay:10.37,2013-08-10 16:37:00,
2013-08-10 09:42:00,71.3,58.9,29.95,South,189,0.0,0.0,65,0.00,CLR,,0.00,WeatherDisplay:10.37,2013-08-10 16:42:00,
2013-08-10 09:47:00,71.6,59.2,29.95,West,269,1.2,0.0,65,0.00,CLR,,0.00,WeatherDisplay:10.37,2013-08-10 16:47:00,
2013-08-10 09:52:00,71.8,59.0,29.95,South,187,0.0,0.0,64,0.00,CLR,,0.00,WeatherDisplay:10.37,2013-08-10 16:52:00,
2013-08-10 09:57:00,72.0,59.2,29.95,WSW,252,2.3,2.3,64,0.00,CLR,,0.00,WeatherDisplay:10.37,2013-08-10 16:57:00,
2013-08-10 10:02:00,72.3,59.0,29.95,WSW,249,2.3,2.3,63,0.00,CLR,,0.00,WeatherDisplay:10.37,2013-08-10 17:02:00,
2013-08-10 10:07:00,72.7,59.4,29.95,ENE,67,0.0,0.0,63,0.00,CLR,,0.00,WeatherDisplay:10.37,2013-08-10 17:07:00,
2013-08-10 10:12:00,72.9,59.1,29.95,SSW,198,1.2,1.2,62,0.00,CLR,,0.00,WeatherDisplay:10.37,2013-08-10 17:12:00,
2013-08-10 10:17:00,73.2,59.8,29.95,ESE,120,1.2,1.2,63,0.00,CLR,,0.00,WeatherDisplay:10.37,2013-08-10 17:17:00,
2013-08-10 10:22:00,73.5,59.7,29.95,South,176,0.0,0.0,62,0.00,CLR,,0.00,WeatherDisplay:10.37,2013-08-10 17:22:00,
2013-08-10 10:27:00,73.7,59.4,29.95,SSW,210,0.0,0.0,61,0.00,CLR,,0.00,WeatherDisplay:10.37,2013-08-10 17:27:00,
2013-08-10 10:32:00,73.9,59.6,29.95,WSW,255,0.0,0.0,61,0.00,CLR,,0.00,WeatherDisplay:10.37,2013-08-10 17:32:00,
2013-08-10 10:37:00,74.2,59.4,29.95,SSW,207,0.0,0.0,60,0.00,CLR,,0.00,WeatherDisplay:10.37,2013-08-10 17:37:00,
2013-08-10 10:42:00,74.5,58.8,29.95,SE,145,0.0,0.0,58,0.00,CLR,,0.00,WeatherDisplay:10.37,2013-08-10 17:42:00,
2013-08-10 10:47:00,74.9,60.5,29.95,ESE,123,1.2,1.2,61,0.00,CLR,,0.00,WeatherDisplay:10.37,2013-08-10 17:47:00,
2013-08-10 10:52:00,75.2,59.9,29.95,WNW,285,1.0,0.0,59,0.00,CLR,,0.00,WeatherDisplay:10.37,2013-08-10 17:52:00,
2013-08-10 10:57:00,75.6,59.3,29.95,SSW,201,0.0,0.0,57,0.00,CLR,,0.00,WeatherDisplay:10.37,2013-08-10 17:57:00,
2013-08-10 11:02:00,76.0,59.2,29.95,WNW,283,3.5,3.5,56,0.00,CLR,,0.00,WeatherDisplay:10.37,2013-08-10 18:02:00,
2013-08-10 11:07:00,76.4,60.0,29.95,SSE,156,0.0,0.0,57,0.00,CLR,,0.00,WeatherDisplay:10.37,2013-08-10 18:07:00,
2013-08-10 11:12:00,76.6,60.2,29.95,West,260,0.0,0.0,57,0.00,CLR,,0.00,WeatherDisplay:10.37,2013-08-10 18:12:00,
2013-08-10 11:17:00,76.8,59.4,29.95,SE,143,1.2,1.2,55,0.00,CLR,,0.00,WeatherDisplay:10.37,2013-08-10 18:17:00,
2013-08-10 11:22:00,77.2,58.2,29.95,SW,225,1.2,1.2,52,0.00,CLR,,0.00,WeatherDisplay:10.37,2013-08-10 18:22:00,
2013-08-10 11:27:00,77.6,59.1,29.95,West,263,1.2,1.2,53,0.00,CLR,,0.00,WeatherDisplay:10.37,2013-08-10 18:27:00,
2013-08-10 11:32:00,78.2,60.2,29.94,West,260,0.0,0.0,54,0.00,CLR,,0.00,WeatherDisplay:10.37,2013-08-10 18:32:00,
2013-08-10 11:37:00,78.7,59.6,29.95,WNW,283,3.5,3.5,52,0.00,CLR,,0.00,WeatherDisplay:10.37,2013-08-10 18:37:00,
2013-08-10 11:42:00,79.3,60.1,29.94,West,267,0.0,0.0,52,0.00,CLR,,0.00,WeatherDisplay:10.37,2013-08-10 18:42:00,
2013-08-10 11:47:00,79.6,59.9,29.94,WSW,238,1.2,0.0,51,0.00,CLR,,0.00,WeatherDisplay:10.37,2013-08-10 18:47:00,
2013-08-10 11:52:00,79.8,59.5,29.94,NNW,347,2.3,2.3,50,0.00,CLR,,0.00,WeatherDisplay:10.37,2013-08-10 18:52:00,
2013-08-10 11:57:00,80.4,60.1,29.94,SSE,150,1.2,1.2,50,0.00,CLR,,0.00,WeatherDisplay:10.37,2013-08-10 18:57:00,
2013-08-10 12:02:00,81.1,59.6,29.94,SE,135,1.2,1.2,48,0.00,CLR,,0.00,WeatherDisplay:10.37,2013-08-10 19:02:00,
2013-08-10 12:07:00,81.5,59.3,29.94,North,354,1.2,1.2,47,0.00,CLR,,0.00,WeatherDisplay:10.37,2013-08-10 19:07:00,
2013-08-10 12:12:00,82.1,58.7,29.94,SW,232,3.5,3.5,45,0.00,CLR,,0.00,WeatherDisplay:10.37,2013-08-10 19:12:00,
2013-08-10 12:17:00,82.5,59.0,29.94,ESE,117,1.2,1.2,45,0.00,CLR,,0.00,WeatherDisplay:10.37,2013-08-10 19:17:00,
2013-08-10 12:22:00,83.2,59.6,29.94,NW,307,1.2,1.2,45,0.00,CLR,,0.00,WeatherDisplay:10.37,2013-08-10 19:22:00,
2013-08-10 12:27:00,83.7,59.5,29.93,NNW,345,5.0,5.0,44,0.00,CLR,,0.00,WeatherDisplay:10.37,2013-08-10 19:27:00,
2013-08-10 12:32:00,83.2,59.0,29.93,North,358,4.0,4.0,44,0.00,CLR,,0.00,WeatherDisplay:10.37,2013-08-10 19:32:00,
2013-08-10 12:37:00,83.1,58.9,29.93,NNW,341,3.5,3.5,44,0.00,CLR,,0.00,WeatherDisplay:10.37,2013-08-10 19:37:00,
2013-08-10 12:42:00,82.8,59.9,29.93,WSW,255,1.2,1.2,46,0.00,CLR,,0.00,WeatherDisplay:10.37,2013-08-10 19:42:00,
2013-08-10 12:47:00,83.3,59.1,29.93,North,9,3.5,3.5,44,0.00,CLR,,0.00,WeatherDisplay:10.37,2013-08-10 19:47:00,
2013-08-10 12:52:00,83.3,59.7,29.93,NW,317,3.5,3.5,45,0.00,CLR,,0.00,WeatherDisplay:10.37,2013-08-10 19:52:00,
2013-08-10 12:57:00,83.8,58.3,29.93,West,264,2.3,2.3,42,0.00,CLR,,0.00,WeatherDisplay:10.37,2013-08-10 19:57:00,
2013-08-10 13:02:00,84.2,57.9,29.93,West,260,3.5,3.5,41,0.00,CLR,,0.00,WeatherDisplay:10.37,2013-08-10 20:02:00,
2013-08-10 13:07:00,84.6,57.6,29.92,WNW,288,2.3,2.3,40,0.00,CLR,,0.00,WeatherDisplay:10.37,2013-08-10 20:07:00,
2013-08-10 13:12:00,85.3,58.2,29.92,NW,320,0.0,0.0,40,0.00,CLR,,0.00,WeatherDisplay:10.37,2013-08-10 20:12:00,
2013-08-10 13:17:00,85.7,57.2,29.92,WSW,244,2.3,2.3,38,0.00,CLR,,0.00,WeatherDisplay:10.37,2013-08-10 20:17:00,
2013-08-10 13:22:00,86.2,59.7,29.92,WNW,283,1.2,1.2,41,0.00,CLR,,0.00,WeatherDisplay:10.37,2013-08-10 20:22:00,
2013-08-10 13:27:00,87.0,60.5,29.92,NW,311,2.3,2.3,41,0.00,CLR,,0.00,WeatherDisplay:10.37,2013-08-10 20:27:00,
2013-08-10 13:32:00,87.4,57.9,29.91,NW,307,3.5,3.5,37,0.00,CLR,,0.00,WeatherDisplay:10.37,2013-08-10 20:32:00,
2013-08-10 13:37:00,87.3,59.3,29.92,East,89,2.3,2.3,39,0.00,CLR,,0.00,WeatherDisplay:10.37,2013-08-10 20:37:00,
2013-08-10 13:42:00,87.9,58.4,29.91,North,359,1.2,1.2,37,0.00,CLR,,0.00,WeatherDisplay:10.37,2013-08-10 20:42:00,
2013-08-10 13:47:00,88.4,57.3,29.91,North,351,5.0,5.0,35,0.00,CLR,,0.00,WeatherDisplay:10.37,2013-08-10 20:47:00,
2013-08-10 13:52:00,88.3,58.7,29.91,West,267,1.2,1.2,37,0.00,CLR,,0.00,WeatherDisplay:10.37,2013-08-10 20:52:00,
2013-08-10 13:57:00,88.9,57.7,29.91,WSW,257,2.0,2.0,35,0.00,CLR,,0.00,WeatherDisplay:10.37,2013-08-10 20:57:00,
2013-08-10 14:02:00,89.2,58.0,29.91,West,277,3.5,3.5,35,0.00,CLR,,0.00,WeatherDisplay:10.37,2013-08-10 21:02:00,
2013-08-10 14:07:00,88.6,58.2,29.91,WSW,252,3.5,3.5,36,0.00,CLR,,0.00,WeatherDisplay:10.37,2013-08-10 21:07:00,
2013-08-10 14:12:00,88.4,57.3,29.91,North,356,3.5,3.5,35,0.00,CLR,,0.00,WeatherDisplay:10.37,2013-08-10 21:12:00,
2013-08-10 14:17:00,89.0,58.6,29.91,NNW,333,3.5,3.5,36,0.00,CLR,,0.00,WeatherDisplay:10.37,2013-08-10 21:17:00,
2013-08-10 14:22:00,89.6,57.5,29.91,SW,233,3.5,3.5,34,0.00,CLR,,0.00,WeatherDisplay:10.37,2013-08-10 21:22:00,
2013-08-10 14:27:00,90.0,57.0,29.90,North,349,2.3,2.3,33,0.00,CLR,,0.00,WeatherDisplay:10.37,2013-08-10 21:27:00,
2013-08-10 14:32:00,89.9,56.1,29.90,NNW,339,2.3,2.3,32,0.00,CLR,,0.00,WeatherDisplay:10.37,2013-08-10 21:32:00,
2013-08-10 14:37:00,89.9,57.8,29.90,West,267,2.3,2.3,34,0.00,CLR,,0.00,WeatherDisplay:10.37,2013-08-10 21:37:00,
2013-08-10 14:42:00,90.2,56.4,29.90,North,360,3.5,3.5,32,0.00,CLR,,0.00,WeatherDisplay:10.37,2013-08-10 21:42:00,
2013-08-10 14:47:00,89.9,55.2,29.90,NNE,22,3.5,3.5,31,0.00,CLR,,0.00,WeatherDisplay:10.37,2013-08-10 21:47:00,
2013-08-10 14:52:00,89.7,55.9,29.90,North,354,3.5,3.5,32,0.00,CLR,,0.00,WeatherDisplay:10.37,2013-08-10 21:52:00,
2013-08-10 14:57:00,89.5,55.7,29.90,WNW,301,3.5,3.5,32,0.00,CLR,,0.00,WeatherDisplay:10.37,2013-08-10 21:57:00,
2013-08-10 15:02:00,89.4,57.3,29.90,SSE,148,1.2,1.2,34,0.00,CLR,,0.00,WeatherDisplay:10.37,2013-08-10 22:02:00,
2013-08-10 15:07:00,90.0,57.9,29.89,NW,321,3.5,3.5,34,0.00,CLR,,0.00,WeatherDisplay:10.37,2013-08-10 22:07:00,
2013-08-10 15:12:00,90.2,57.2,29.89,SE,143,2.3,2.3,33,0.00,CLR,,0.00,WeatherDisplay:10.37,2013-08-10 22:12:00,
2013-08-10 15:17:00,90.6,58.4,29.89,NNW,333,3.5,3.5,34,0.00,CLR,,0.00,WeatherDisplay:10.37,2013-08-10 22:17:00,
2013-08-10 15:22:00,91.6,58.4,29.89,NNW,333,2.0,2.0,33,0.00,CLR,,0.00,WeatherDisplay:10.37,2013-08-10 22:22:00,
2013-08-10 15:27:00,91.8,56.9,29.88,NNE,22,8.1,8.1,31,0.00,CLR,,0.00,WeatherDisplay:10.37,2013-08-10 22:27:00,
2013-08-10 15:32:00,91.3,57.3,29.88,SSW,201,3.5,3.5,32,0.00,CLR,,0.00,WeatherDisplay:10.37,2013-08-10 22:32:00,
2013-08-10 15:37:00,91.4,57.4,29.88,SE,134,2.3,2.3,32,0.00,CLR,,0.00,WeatherDisplay:10.37,2013-08-10 22:37:00,
2013-08-10 15:42:00,91.2,58.1,29.88,NNW,328,3.5,3.5,33,0.00,CLR,,0.00,WeatherDisplay:10.37,2013-08-10 22:42:00,
2013-08-10 15:47:00,91.2,57.2,29.88,SSW,210,1.2,1.2,32,0.00,CLR,,0.00,WeatherDisplay:10.37,2013-08-10 22:47:00,
2013-08-10 15:52:00,91.6,56.7,29.88,West,270,3.5,3.5,31,0.00,CLR,,0.00,WeatherDisplay:10.37,2013-08-10 22:52:00,
2013-08-10 15:57:00,91.7,55.9,29.87,SW,236,2.3,2.3,30,0.00,CLR,,0.00,WeatherDisplay:10.37,2013-08-10 22:57:00,
2013-08-10 16:02:00,92.2,57.2,29.87,West,267,3.5,3.5,31,0.00,CLR,,0.00,WeatherDisplay:10.37,2013-08-10 23:02:00,
2013-08-10 16:07:00,92.6,57.6,29.87,NW,312,1.2,1.2,31,0.00,CLR,,0.00,WeatherDisplay:10.37,2013-08-10 23:07:00,
2013-08-10 16:12:00,92.0,57.0,29.87,West,278,5.8,5.8,31,0.00,CLR,,0.00,WeatherDisplay:10.37,2013-08-10 23:12:00,
2013-08-10 16:17:00,92.3,56.4,29.86,North,5,2.3,2.3,30,0.00,CLR,,0.00,WeatherDisplay:10.37,2013-08-10 23:17:00,
2013-08-10 16:22:00,92.6,56.6,29.86,East,96,2.3,2.3,30,0.00,CLR,,0.00,WeatherDisplay:10.37,2013-08-10 23:22:00,
2013-08-10 16:27:00,92.4,56.5,29.86,NW,319,5.8,5.8,30,0.00,CLR,,0.00,WeatherDisplay:10.37,2013-08-10 23:27:00,
2013-08-10 16:32:00,91.6,57.6,29.86,SE,145,2.3,2.3,32,0.00,CLR,,0.00,WeatherDisplay:10.37,2013-08-10 23:32:00,
2013-08-10 16:37:00,92.1,57.1,29.86,NNW,330,4.6,4.6,31,0.00,CLR,,0.00,WeatherDisplay:10.37,2013-08-10 23:37:00,
2013-08-10 16:42:00,92.2,57.2,29.86,ESE,115,2.3,2.3,31,0.00,CLR,,0.00,WeatherDisplay:10.37,2013-08-10 23:42:00,
2013-08-10 16:47:00,92.4,56.5,29.86,NNE,33,2.3,2.3,30,0.00,CLR,,0.00,WeatherDisplay:10.37,2013-08-10 23:47:00,
2013-08-10 16:52:00,92.5,56.6,29.85,North,358,4.6,4.6,30,0.00,CLR,,0.00,WeatherDisplay:10.37,2013-08-10 23:52:00,
2013-08-10 16:57:00,92.1,57.1,29.86,NNE,30,4.6,4.6,31,0.00,CLR,,0.00,WeatherDisplay:10.37,2013-08-10 23:57:00,
2013-08-10 17:02:00,92.2,56.3,29.86,NNW,345,3.5,3.5,30,0.00,CLR,,0.00,WeatherDisplay:10.37,2013-08-11 00:02:00,
2013-08-10 17:07:00,92.9,56.0,29.85,WSW,249,2.3,2.3,29,0.00,CLR,,0.00,WeatherDisplay:10.37,2013-08-11 00:07:00,
2013-08-10 17:12:00,92.7,54.8,29.85,West,260,3.5,3.5,28,0.00,CLR,,0.00,WeatherDisplay:10.37,2013-08-11 00:12:00,
2013-08-10 17:17:00,92.7,55.8,29.85,NW,312,2.3,2.3,29,0.00,CLR,,0.00,WeatherDisplay:10.37,2013-08-11 00:17:00,
2013-08-10 17:22:00,92.6,55.7,29.85,SW,232,2.3,2.3,29,0.00,CLR,,0.00,WeatherDisplay:10.37,2013-08-11 00:22:00,
2013-08-10 17:27:00,92.5,55.6,29.85,West,277,3.5,3.5,29,0.00,CLR,,0.00,WeatherDisplay:10.37,2013-08-11 00:27:00,
2013-08-10 17:32:00,92.4,54.6,29.85,WSW,240,3.5,3.5,28,0.00,CLR,,0.00,WeatherDisplay:10.37,2013-08-11 00:32:00,
2013-08-10 17:37:00,92.5,55.6,29.85,West,260,2.0,2.0,29,0.00,CLR,,0.00,WeatherDisplay:10.37,2013-08-11 00:37:00,
2013-08-10 17:42:00,92.7,55.8,29.85,West,280,2.3,2.3,29,0.00,CLR,,0.00,WeatherDisplay:10.37,2013-08-11 00:42:00,
2013-08-10 17:47:00,92.4,55.5,29.85,WSW,252,5.8,5.8,29,0.00,CLR,,0.00,WeatherDisplay:10.37,2013-08-11 00:47:00,
2013-08-10 17:52:00,92.2,55.4,29.85,NNE,19,4.0,4.0,29,0.00,CLR,,0.00,WeatherDisplay:10.37,2013-08-11 00:52:00,
2013-08-10 17:57:00,91.8,55.0,29.85,SW,217,2.3,2.3,29,0.00,CLR,,0.00,WeatherDisplay:10.37,2013-08-11 00:57:00,
2013-08-10 18:02:00,91.8,54.1,29.84,NNE,24,2.3,2.3,28,0.00,CLR,,0.00,WeatherDisplay:10.37,2013-08-11 01:02:00,
2013-08-10 18:07:00,91.9,55.1,29.84,NNW,340,1.2,1.2,29,0.00,CLR,,0.00,WeatherDisplay:10.37,2013-08-11 01:07:00,
2013-08-10 18:12:00,92.2,55.4,29.84,NNE,33,3.5,3.5,29,0.00,CLR,,0.00,WeatherDisplay:10.37,2013-08-11 01:12:00,
2013-08-10 18:17:00,91.7,54.0,29.84,NE,44,4.6,4.6,28,0.00,CLR,,0.00,WeatherDisplay:10.37,2013-08-11 01:17:00,
2013-08-10 18:22:00,91.5,54.8,29.84,North,356,3.5,3.5,29,0.00,CLR,,0.00,WeatherDisplay:10.37,2013-08-11 01:22:00,
2013-08-10 18:27:00,91.3,54.6,29.84,SW,235,3.5,3.5,29,0.00,CLR,,0.00,WeatherDisplay:10.37,2013-08-11 01:27:00,
2013-08-10 18:32:00,91.3,53.6,29.84,NNW,345,4.0,4.0,28,0.00,CLR,,0.00,WeatherDisplay:10.37,2013-08-11 01:32:00,
2013-08-10 18:37:00,91.0,53.4,29.84,NNW,333,1.2,1.2,28,0.00,CLR,,0.00,WeatherDisplay:10.37,2013-08-11 01:37:00,
2013-08-10 18:42:00,91.1,53.5,29.84,East,86,1.2,1.2,28,0.00,CLR,,0.00,WeatherDisplay:10.37,2013-08-11 01:42:00,
2013-08-10 18:47:00,90.7,55.0,29.84,NNW,348,2.0,2.0,30,0.00,CLR,,0.00,WeatherDisplay:10.37,2013-08-11 01:47:00,
2013-08-10 18:52:00,90.5,53.9,29.84,WSW,249,2.3,2.3,29,0.00,CLR,,0.00,WeatherDisplay:10.37,2013-08-11 01:52:00,
2013-08-10 18:57:00,90.5,53.9,29.84,North,351,0.0,0.0,29,0.00,CLR,,0.00,WeatherDisplay:10.37,2013-08-11 01:57:00,
2013-08-10 19:02:00,90.4,53.8,29.84,WSW,240,1.2,1.2,29,0.00,CLR,,0.00,WeatherDisplay:10.37,2013-08-11 02:02:00,
2013-08-10 19:07:00,90.0,53.5,29.84,NNW,339,1.2,1.2,29,0.00,CLR,,0.00,WeatherDisplay:10.37,2013-08-11 02:07:00,
2013-08-10 19:12:00,89.7,53.2,29.84,NNW,345,1.2,1.2,29,0.00,CLR,,0.00,WeatherDisplay:10.37,2013-08-11 02:12:00,
2013-08-10 19:17:00,89.0,53.5,29.84,NNW,343,1.2,0.0,30,0.00,CLR,,0.00,WeatherDisplay:10.37,2013-08-11 02:17:00,
2013-08-10 19:22:00,88.2,54.6,29.84,NNW,345,1.2,0.0,32,0.00,CLR,,0.00,WeatherDisplay:10.37,2013-08-11 02:22:00,
2013-08-10 19:27:00,87.4,53.9,29.85,NNW,341,1.2,1.2,32,0.00,CLR,,0.00,WeatherDisplay:10.37,2013-08-11 02:27:00,
2013-08-10 19:32:00,86.8,53.4,29.85,NNW,339,1.2,1.2,32,0.00,CLR,,0.00,WeatherDisplay:10.37,2013-08-11 02:32:00,
2013-08-10 19:37:00,86.3,53.8,29.85,NNW,339,0.0,0.0,33,0.00,CLR,,0.00,WeatherDisplay:10.37,2013-08-11 02:37:00,
2013-08-10 19:42:00,85.9,53.5,29.85,NNW,339,0.0,0.0,33,0.00,CLR,,0.00,WeatherDisplay:10.37,2013-08-11 02:42:00,
2013-08-10 19:47:00,85.5,53.9,29.85,NNW,339,0.0,0.0,34,0.00,CLR,,0.00,WeatherDisplay:10.37,2013-08-11 02:47:00,
2013-08-10 19:53:00,85.1,54.4,29.85,NNW,339,0.0,0.0,35,0.00,CLR,,0.00,WeatherDisplay:10.37,2013-08-11 02:53:00,
2013-08-10 19:58:00,84.6,56.9,29.85,NNW,339,0.0,0.0,39,0.00,CLR,,0.00,WeatherDisplay:10.37,2013-08-11 02:58:00,
2013-08-10 20:04:00,83.9,56.3,29.85,NNW,339,0.0,0.0,39,0.00,CLR,,0.00,WeatherDisplay:10.37,2013-08-11 03:04:00,
2013-08-10 20:09:00,83.2,57.1,29.85,NNW,339,0.0,0.0,41,0.00,CLR,,0.00,WeatherDisplay:10.37,2013-08-11 03:09:00,
2013-08-10 20:15:00,82.5,57.1,29.85,NNW,339,0.0,0.0,42,0.00,CLR,,0.00,WeatherDisplay:10.37,2013-08-11 03:15:00,
2013-08-10 20:20:00,81.8,56.5,29.85,NNW,339,0.0,0.0,42,0.00,CLR,,0.00,WeatherDisplay:10.37,2013-08-11 03:20:00,
2013-08-10 20:25:00,81.1,55.8,29.85,NNW,339,0.0,0.0,42,0.00,CLR,,0.00,WeatherDisplay:10.37,2013-08-11 03:25:00,
2013-08-10 20:30:00,80.8,56.2,29.85,NNW,339,0.0,0.0,43,0.00,CLR,,0.00,WeatherDisplay:10.37,2013-08-11 03:30:00,
2013-08-10 20:35:00,80.6,56.7,29.85,NNW,339,0.0,0.0,44,0.00,CLR,,0.00,WeatherDisplay:10.37,2013-08-11 03:35:00,
2013-08-10 20:41:00,80.5,57.2,29.86,NNW,339,0.0,0.0,45,0.00,CLR,,0.00,WeatherDisplay:10.37,2013-08-11 03:41:00,
2013-08-10 20:46:00,80.2,56.9,29.86,NNW,339,0.0,0.0,45,0.00,CLR,,0.00,WeatherDisplay:10.37,2013-08-11 03:46:00,
2013-08-10 20:52:00,79.8,57.8,29.86,NNW,339,0.0,0.0,47,0.00,CLR,,0.00,WeatherDisplay:10.37,2013-08-11 03:52:00,
2013-08-10 20:57:00,79.3,57.9,29.86,NNW,339,0.0,0.0,48,0.00,CLR,,0.00,WeatherDisplay:10.37,2013-08-11 03:57:00,
2013-08-10 21:01:00,78.9,58.1,29.86,NNW,339,0.0,0.0,49,0.00,CLR,,0.00,WeatherDisplay:10.37,2013-08-11 04:01:00,
2013-08-10 21:02:00,78.8,58.0,29.86,NNW,339,0.0,0.0,49,0.00,CLR,,0.00,WeatherDisplay:10.37,2013-08-11 04:02:00,
2013-08-10 21:07:00,78.2,57.5,29.87,NNW,339,0.0,0.0,49,0.00,CLR,,0.00,WeatherDisplay:10.37,2013-08-11 04:07:00,
2013-08-10 21:12:00,77.7,57.6,29.87,NNW,339,0.0,0.0,50,0.00,CLR,,0.00,WeatherDisplay:10.37,2013-08-11 04:12:00,
2013-08-10 21:17:00,77.2,56.6,29.87,NNW,339,0.0,0.0,49,0.00,CLR,,0.00,WeatherDisplay:10.37,2013-08-11 04:17:00,
2013-08-10 21:22:00,76.7,56.7,29.87,NNW,339,0.0,0.0,50,0.00,CLR,,0.00,WeatherDisplay:10.37,2013-08-11 04:22:00,
2013-08-10 21:27:00,76.4,58.5,29.88,NNW,339,0.0,0.0,54,0.00,CLR,,0.00,WeatherDisplay:10.37,2013-08-11 04:27:00,
2013-08-10 21:32:00,76.0,57.6,29.88,NNW,339,0.0,0.0,53,0.00,CLR,,0.00,WeatherDisplay:10.37,2013-08-11 04:32:00,
2013-08-10 21:37:00,75.7,57.4,29.88,NNW,339,0.0,0.0,53,0.00,CLR,,0.00,WeatherDisplay:10.37,2013-08-11 04:37:00,
2013-08-10 21:42:00,75.5,56.6,29.88,NNW,339,0.0,0.0,52,0.00,CLR,,0.00,WeatherDisplay:10.37,2013-08-11 04:42:00,
2013-08-10 21:47:00,75.1,56.8,29.88,NNW,339,0.0,0.0,53,0.00,CLR,,0.00,WeatherDisplay:10.37,2013-08-11 04:47:00,
2013-08-10 21:52:00,74.9,57.6,29.88,NNW,339,0.0,0.0,55,0.00,CLR,,0.00,WeatherDisplay:10.37,2013-08-11 04:52:00,
2013-08-10 21:57:00,74.7,57.5,29.88,NNW,339,0.0,0.0,55,0.00,CLR,,0.00,WeatherDisplay:10.37,2013-08-11 04:57:00,
2013-08-10 22:02:00,74.5,58.3,29.88,NNW,339,0.0,0.0,57,0.00,CLR,,0.00,WeatherDisplay:10.37,2013-08-11 05:02:00,
2013-08-10 22:07:00,74.3,58.1,29.88,NNW,339,0.0,0.0,57,0.00,CLR,,0.00,WeatherDisplay:10.37,2013-08-11 05:07:00,
2013-08-10 22:12:00,74.0,58.8,29.88,NNW,339,0.0,0.0,59,0.00,CLR,,0.00,WeatherDisplay:10.37,2013-08-11 05:12:00,
2013-08-10 22:17:00,73.8,58.1,29.88,NNW,339,0.0,0.0,58,0.00,CLR,,0.00,WeatherDisplay:10.37,2013-08-11 05:17:00,
2013-08-10 22:23:00,73.5,58.8,29.88,NNW,339,0.0,0.0,60,0.00,CLR,,0.00,WeatherDisplay:10.37,2013-08-11 05:23:00,
2013-08-10 22:28:00,73.2,58.0,29.89,NNW,339,0.0,0.0,59,0.00,CLR,,0.00,WeatherDisplay:10.37,2013-08-11 05:28:00,
2013-08-10 22:33:00,73.0,58.3,29.88,NNW,339,0.0,0.0,60,0.00,CLR,,0.00,WeatherDisplay:10.37,2013-08-11 05:33:00,
2013-08-10 22:38:00,72.7,58.9,29.88,NNW,339,0.0,0.0,62,0.00,CLR,,0.00,WeatherDisplay:10.37,2013-08-11 05:38:00,
2013-08-10 22:44:00,72.4,57.3,29.89,NNW,339,0.0,0.0,59,0.00,CLR,,0.00,WeatherDisplay:10.37,2013-08-11 05:44:00,
2013-08-10 22:49:00,72.2,58.0,29.89,NNW,339,0.0,0.0,61,0.00,CLR,,0.00,WeatherDisplay:10.37,2013-08-11 05:49:00,
2013-08-10 22:54:00,72.0,58.3,29.89,NNW,339,0.0,0.0,62,0.00,CLR,,0.00,WeatherDisplay:10.37,2013-08-11 05:54:00,
2013-08-10 22:59:00,71.8,58.1,29.89,NNW,339,0.0,0.0,62,0.00,CLR,,0.00,WeatherDisplay:10.37,2013-08-11 05:59:00,
2013-08-10 23:04:00,71.6,57.9,29.89,NNW,339,0.0,0.0,62,0.00,CLR,,0.00,WeatherDisplay:10.37,2013-08-11 06:04:00,
2013-08-10 23:09:00,71.4,56.8,29.89,NNW,339,0.0,0.0,60,0.00,CLR,,0.00,WeatherDisplay:10.37,2013-08-11 06:09:00,
2013-08-10 23:14:00,71.3,58.1,29.89,NNW,339,0.0,0.0,63,0.00,CLR,,0.00,WeatherDisplay:10.37,2013-08-11 06:14:00,
2013-08-10 23:19:00,71.1,57.4,29.89,NNW,339,0.0,0.0,62,0.00,CLR,,0.00,WeatherDisplay:10.37,2013-08-11 06:19:00,
2013-08-10 23:24:00,70.9,56.8,29.89,NNW,339,0.0,0.0,61,0.00,CLR,,0.00,WeatherDisplay:10.37,2013-08-11 06:24:00,
2013-08-10 23:30:00,70.7,57.0,29.89,NNW,339,0.0,0.0,62,0.00,CLR,,0.00,WeatherDisplay:10.37,2013-08-11 06:30:00,
2013-08-10 23:35:00,70.7,58.4,29.89,NNW,339,0.0,0.0,65,0.00,CLR,,0.00,WeatherDisplay:10.37,2013-08-11 06:35:00,
2013-08-10 23:40:00,70.6,57.8,29.89,NNW,339,0.0,0.0,64,0.00,CLR,,0.00,WeatherDisplay:10.37,2013-08-11 06:40:00,
2013-08-10 23:45:00,70.5,59.0,29.89,NNW,339,0.0,0.0,67,0.00,CLR,,0.00,WeatherDisplay:10.37,2013-08-11 06:45:00,
2013-08-10 23:51:00,70.5,58.2,29.89,NNW,339,0.0,0.0,65,0.00,CLR,,0.00,WeatherDisplay:10.37,2013-08-11 06:51:00,
2013-08-10 23:56:00,70.2,58.3,29.89,NNW,339,0.0,0.0,66,0.00,CLR,,0.00,WeatherDisplay:10.37,2013-08-11 06:56:00,